#timestamp,LO_Frequency,Hit,StdDev 
1456243215.0,286046997.9,N
1456243215.9,286046997.9,N
1456243235.8,286047002.6,N
1456243255.6,286046998.8,N
1456243275.4,286047001.9,N
1456243295.3,286047000.1,N
1456243315.1,286046999.9,N
1456243316.0,286046999.9,N
1456243335.8,286047002.6,N
1456243355.7,286047003.3,N
1456243375.5,286047004.3,N
1456243395.3,286047003.9,N
1456243415.2,286047001.0,N
1456243435.9,286047002.6,N
1456243455.7,286047001.0,N
1456243475.6,286047003.9,N
1456243495.4,286046999.8,N
1456243515.2,286046994.9,N
1456243535.0,286046998.7,N
1456243536.0,286046998.7,N
1456243555.8,286046996.7,N
1456243575.6,286046994.1,N
1456243595.4,286046993.9,N
1456243615.3,286046999.6,N
1456243635.1,286047004.4,N
1456243655.8,286047001.1,N
1456243675.7,286046998.7,N
1456243695.5,286047001.0,N
1456243715.3,286046995.3,N
1456243735.2,286046995.9,N
1456243755.9,286046999.2,N
1456243775.7,286047002.1,N
1456243795.6,286046997.9,N
1456243815.4,286046998.4,N
1456243835.2,286046998.5,N
1456243855.0,286046995.1,N
1456243856.0,286046995.1,N
1456243875.8,286046992.3,N
1456243895.6,286046991.4,N
1456243915.5,286046987.5,Y
1456243935.3,286046995.4,P
1456243955.1,286046991.8,P
1456243975.8,286046999.1,N
1456243995.7,286046997.9,N
1456244015.5,286046996.6,N
1456244035.3,286047000.8,N
1456244055.2,286046998.0,N
1456244075.9,286046997.3,N
1456244095.7,286046997.7,N
1456244115.6,286046995.6,N
1456244135.4,286046995.5,N
1456244155.2,286046996.3,N
1456244175.1,286046997.1,N
1456244176.0,286046997.1,N
1456244195.8,286046998.0,N
1456244215.6,286046994.0,Y
1456244235.5,286046998.8,P
1456244255.3,286046995.1,P
1456244275.1,286046996.3,N
1456244295.9,286046999.1,N
1456244315.7,286047000.8,N
1456244335.5,286046998.8,N
1456244355.3,286046996.6,N
1456244375.2,286046993.8,Y
1456244395.0,286046997.4,P
1456244395.9,286046997.4,P
1456244415.7,286046997.3,P
1456244435.6,286046993.9,Y
1456244455.4,286047000.4,P
1456244475.3,286047002.0,N
1456244495.1,286047002.4,N
1456244496.0,286047002.4,N
1456244515.8,286046996.8,N
1456244535.6,286047000.2,N
1456244555.5,286047003.5,N
1456244575.3,286047007.8,Y
1456244595.1,286047005.9,P
1456244615.9,286047001.9,N
1456244635.7,286047007.6,P
1456244655.5,286047004.7,N
1456244675.4,286047007.5,N
1456244695.2,286047002.9,N
1456244715.0,286047005.2,N
1456244715.9,286047005.2,N
1456244735.8,286047004.2,N
1456244755.6,286047005.9,N
1456244775.4,286047002.4,N
1456244795.3,286047003.8,N
1456244815.1,286047003.7,N
1456244816.0,286047003.7,N
1456244835.8,286047003.1,N
1456244855.7,286047003.1,N
1456244875.5,286047005.2,N
1456244895.3,286047002.9,N
1456244915.2,286047007.5,Y
1456244935.9,286047001.4,P
1456244955.7,286047003.5,N
1456244975.5,286047002.9,N
1456244995.4,286047006.0,Y
1456245015.2,286046998.7,P
1456245035.0,286046999.4,N
1456245036.0,286046999.4,N
1456245055.8,286046998.8,N
1456245075.6,286046997.3,N
1456245095.4,286047001.9,N
1456245115.3,286046998.1,N
1456245135.1,286047005.1,N
1456245155.8,286047000.6,N
1456245175.7,286047002.7,N
1456245195.5,286047003.2,N
1456245215.3,286047000.4,N
1456245235.2,286046995.9,N
1456245255.9,286046993.8,N
1456245275.7,286046997.7,N
1456245295.6,286046999.7,N
1456245315.4,286046996.9,N
1456245335.2,286046997.4,N
1456245355.0,286046999.5,N
1456245356.0,286046999.5,N
1456245375.8,286047000.7,N
1456245395.6,286047002.0,N
1456245415.4,286046998.4,N
1456245435.3,286046998.9,N
1456245455.1,286047000.3,N
1456245475.8,286046999.4,N
1456245495.7,286046995.8,N
1456245515.5,286046995.9,N
1456245535.3,286046996.8,N
1456245555.2,286046998.1,N
1456245575.9,286046998.9,N
1456245595.7,286046995.6,N
1456245615.6,286046997.2,N
1456245635.4,286046999.2,N
1456245655.2,286046999.6,N
1456245675.1,286046997.8,N
1456245676.0,286046997.8,N
1456245695.8,286046996.1,N
1456245715.6,286046997.2,N
1456245735.4,286047000.1,N
1456245755.3,286047002.8,N
1456245775.1,286046997.2,N
1456245795.8,286046995.5,N
1456245815.7,286046995.3,N
1456245835.5,286046995.0,N
1456245855.3,286046996.7,N
1456245875.2,286046995.0,N
1456245895.9,286046996.0,N
1456245915.7,286046996.1,N
1456245935.6,286046995.0,N
1456245955.4,286046995.6,N
1456245975.2,286046997.7,N
1456245995.1,286046995.4,N
1456245996.0,286046995.4,N
1456246015.8,286046997.6,N
1456246035.6,286046998.9,N
1456246055.5,286046999.8,N
1456246075.3,286047002.6,N
1456246095.1,286047000.3,N
1456246115.9,286046996.7,N
1456246135.7,286046998.1,N
1456246155.5,286047001.4,N
1456246175.3,286047003.6,N
1456246195.2,286047002.3,N
1456246215.0,286046999.1,N
1456246215.9,286046999.1,N
1456246235.7,286047001.0,N
1456246255.6,286047001.0,N
1456246275.4,286047001.6,N
1456246295.2,286047000.5,N
1456246315.1,286047000.2,N
1456246316.0,286047000.2,N
1456246335.8,286046996.8,N
1456246355.6,286046998.8,N
1456246375.5,286046999.2,N
1456246395.3,286046998.0,N
1456246415.1,286046996.6,N
1456246435.9,286046998.8,N
1456246455.7,286047000.7,N
1456246475.5,286046998.2,N
1456246495.4,286046999.4,N
1456246515.2,286046996.9,N
1456246535.0,286046999.0,N
1456246535.9,286046999.0,N
1456246555.7,286046997.3,N
1456246575.6,286046994.1,Y
1456246595.4,286046992.4,P
1456246615.2,286046991.4,N
1456246635.1,286046991.6,N
1456246636.0,286046991.6,N
1456246655.8,286046988.7,Y
1456246675.7,286046994.1,P
1456246695.5,286046993.3,P
1456246715.3,286047000.9,N
1456246735.1,286046996.6,N
1456246755.9,286046999.9,N
1456246775.7,286047003.9,N
1456246795.5,286047001.5,N
